Information on these data can be found in provided Readme document
Contact Info: Zachary Fasnacht (zachary.fasnacht@ssaihq.com); Nickolay Krotkov (nickolay.a.krotkov@nasa.gov); Lok Lamsal (lok.lamsal@nasa.gov)

FillValue: -999.
ScaleFactor: 1e15
Units: molecules/cm^2

Date(yyyy-mm-dd),City,Country,LonCenter,LatCenter,BoundingCoordinates,Median,Q1,Q3,Mean,Baseline_Median,Baseline_Q1,Baseline_Q3,Baseline_Mean,NumGoodSamples,NumTotalSamples
2015-01-01,Windhoek,Namibia,17.0658,-22.5609,[16.5658 -23.0609 17.5658 -22.0609],0.448,0.047,0.688,0.396,0.48,0.052,0.81,0.448,262.0,543.0
2015-01-02,Windhoek,Namibia,17.0658,-22.5609,[16.5658 -23.0609 17.5658 -22.0609],0.458,0.039,0.769,0.407,0.487,0.067,0.841,0.458,246.0,554.0
2015-01-03,Windhoek,Namibia,17.0658,-22.5609,[16.5658 -23.0609 17.5658 -22.0609],0.441,0.039,0.762,0.399,0.485,0.088,0.813,0.464,250.0,535.0
2015-01-04,Windhoek,Namibia,17.0658,-22.5609,[16.5658 -23.0609 17.5658 -22.0609],0.401,0.007,0.685,0.379,0.472,0.084,0.77,0.454,220.0,555.0
2015-01-05,Windhoek,Namibia,17.0658,-22.5609,[16.5658 -23.0609 17.5658 -22.0609],0.359,0.007,0.663,0.356,0.471,0.093,0.789,0.46,189.0,545.0
2015-01-06,Windhoek,Namibia,17.0658,-22.5609,[16.5658 -23.0609 17.5658 -22.0609],0.359,0.007,0.685,0.368,0.459,0.084,0.782,0.456,186.0,562.0
2015-01-07,Windhoek,Namibia,17.0658,-22.5609,[16.5658 -23.0609 17.5658 -22.0609],0.359,0.039,0.666,0.361,0.495,0.118,0.805,0.477,160.0,557.0
2015-01-08,Windhoek,Namibia,17.0658,-22.5609,[16.5658 -23.0609 17.5658 -22.0609],0.359,0.039,0.673,0.362,0.504,0.173,0.823,0.504,158.0,548.0
2015-01-09,Windhoek,Namibia,17.0658,-22.5609,[16.5658 -23.0609 17.5658 -22.0609],0.457,0.083,0.729,0.409,0.521,0.183,0.824,0.506,161.0,565.0
2015-01-10,Windhoek,Namibia,17.0658,-22.5609,[16.5658 -23.0609 17.5658 -22.0609],0.457,0.083,0.729,0.409,0.531,0.176,0.834,0.502,161.0,516.0
2015-01-11,Windhoek,Namibia,17.0658,-22.5609,[16.5658 -23.0609 17.5658 -22.0609],0.46,0.101,0.686,0.425,0.547,0.169,0.858,0.511,121.0,522.0
2015-01-12,Windhoek,Namibia,17.0658,-22.5609,[16.5658 -23.0609 17.5658 -22.0609],0.607,0.257,0.964,0.629,0.564,0.176,0.881,0.525,139.0,518.0
2015-01-13,Windhoek,Namibia,17.0658,-22.5609,[16.5658 -23.0609 17.5658 -22.0609],0.619,0.257,1.031,0.665,0.577,0.192,0.901,0.546,121.0,547.0
2015-01-14,Windhoek,Namibia,17.0658,-22.5609,[16.5658 -23.0609 17.5658 -22.0609],0.619,0.257,1.05,0.677,0.578,0.15,0.906,0.539,94.0,528.0
2015-01-15,Windhoek,Namibia,17.0658,-22.5609,[16.5658 -23.0609 17.5658 -22.0609],0.619,0.257,1.05,0.684,0.578,0.179,0.914,0.552,104.0,531.0
2015-01-16,Windhoek,Namibia,17.0658,-22.5609,[16.5658 -23.0609 17.5658 -22.0609],0.685,0.257,1.127,0.716,0.535,0.164,0.892,0.518,108.0,533.0
2015-01-17,Windhoek,Namibia,17.0658,-22.5609,[16.5658 -23.0609 17.5658 -22.0609],0.685,0.257,1.127,0.716,0.529,0.146,0.88,0.503,108.0,520.0
2015-01-18,Windhoek,Namibia,17.0658,-22.5609,[16.5658 -23.0609 17.5658 -22.0609],0.765,0.331,1.146,0.776,0.526,0.155,0.892,0.505,104.0,531.0
2015-01-19,Windhoek,Namibia,17.0658,-22.5609,[16.5658 -23.0609 17.5658 -22.0609],0.765,0.331,1.146,0.776,0.544,0.152,0.906,0.511,104.0,511.0
2015-01-20,Windhoek,Namibia,17.0658,-22.5609,[16.5658 -23.0609 17.5658 -22.0609],0.804,0.508,1.201,0.853,0.532,0.152,0.874,0.501,101.0,528.0
2015-01-21,Windhoek,Namibia,17.0658,-22.5609,[16.5658 -23.0609 17.5658 -22.0609],0.774,0.463,1.146,0.813,0.536,0.157,0.887,0.511,95.0,518.0
2015-01-22,Windhoek,Namibia,17.0658,-22.5609,[16.5658 -23.0609 17.5658 -22.0609],0.774,0.405,1.146,0.788,0.529,0.126,0.885,0.504,116.0,534.0
2015-01-23,Windhoek,Namibia,17.0658,-22.5609,[16.5658 -23.0609 17.5658 -22.0609],0.774,0.405,1.146,0.787,0.504,0.107,0.861,0.469,112.0,532.0
2015-01-24,Windhoek,Namibia,17.0658,-22.5609,[16.5658 -23.0609 17.5658 -22.0609],0.765,0.405,1.146,0.823,0.505,0.104,0.847,0.472,114.0,523.0
2015-01-25,Windhoek,Namibia,17.0658,-22.5609,[16.5658 -23.0609 17.5658 -22.0609],0.765,0.436,1.146,0.829,0.497,0.094,0.845,0.473,136.0,561.0
2015-01-26,Windhoek,Namibia,17.0658,-22.5609,[16.5658 -23.0609 17.5658 -22.0609],0.742,0.321,1.05,0.762,0.479,0.068,0.816,0.461,155.0,536.0
2015-01-27,Windhoek,Namibia,17.0658,-22.5609,[16.5658 -23.0609 17.5658 -22.0609],0.701,0.197,0.953,0.676,0.453,0.053,0.803,0.437,115.0,539.0
2015-01-28,Windhoek,Namibia,17.0658,-22.5609,[16.5658 -23.0609 17.5658 -22.0609],0.572,0.163,0.9,0.59,0.454,0.065,0.807,0.449,153.0,535.0
2015-01-29,Windhoek,Namibia,17.0658,-22.5609,[16.5658 -23.0609 17.5658 -22.0609],0.572,0.165,0.9,0.585,0.482,0.095,0.847,0.473,174.0,564.0
2015-01-30,Windhoek,Namibia,17.0658,-22.5609,[16.5658 -23.0609 17.5658 -22.0609],0.556,0.189,0.875,0.564,0.465,0.078,0.831,0.456,179.0,549.0
2015-01-31,Windhoek,Namibia,17.0658,-22.5609,[16.5658 -23.0609 17.5658 -22.0609],0.545,0.149,0.852,0.545,0.467,0.078,0.802,0.458,200.0,552.0
2015-02-01,Windhoek,Namibia,17.0658,-22.5609,[16.5658 -23.0609 17.5658 -22.0609],0.533,0.111,0.774,0.512,0.474,0.087,0.784,0.454,225.0,554.0
2015-02-02,Windhoek,Namibia,17.0658,-22.5609,[16.5658 -23.0609 17.5658 -22.0609],0.507,0.072,0.76,0.482,0.494,0.117,0.822,0.493,253.0,541.0
2015-02-03,Windhoek,Namibia,17.0658,-22.5609,[16.5658 -23.0609 17.5658 -22.0609],0.507,0.072,0.76,0.483,0.509,0.114,0.851,0.502,256.0,551.0
2015-02-04,Windhoek,Namibia,17.0658,-22.5609,[16.5658 -23.0609 17.5658 -22.0609],0.504,0.111,0.76,0.486,0.51,0.134,0.853,0.508,267.0,535.0
2015-02-05,Windhoek,Namibia,17.0658,-22.5609,[16.5658 -23.0609 17.5658 -22.0609],0.507,0.111,0.76,0.489,0.474,0.095,0.813,0.48,264.0,552.0
2015-02-06,Windhoek,Namibia,17.0658,-22.5609,[16.5658 -23.0609 17.5658 -22.0609],0.533,0.162,0.829,0.531,0.504,0.097,0.835,0.49,268.0,543.0
2015-02-07,Windhoek,Namibia,17.0658,-22.5609,[16.5658 -23.0609 17.5658 -22.0609],0.533,0.162,0.852,0.539,0.515,0.096,0.861,0.504,302.0,559.0
2015-02-08,Windhoek,Namibia,17.0658,-22.5609,[16.5658 -23.0609 17.5658 -22.0609],0.522,0.137,0.799,0.515,0.498,0.074,0.888,0.494,291.0,557.0
2015-02-09,Windhoek,Namibia,17.0658,-22.5609,[16.5658 -23.0609 17.5658 -22.0609],0.512,0.122,0.803,0.507,0.512,0.107,0.905,0.512,294.0,550.0
2015-02-10,Windhoek,Namibia,17.0658,-22.5609,[16.5658 -23.0609 17.5658 -22.0609],0.516,0.139,0.818,0.522,0.501,0.114,0.904,0.519,289.0,565.0
2015-02-11,Windhoek,Namibia,17.0658,-22.5609,[16.5658 -23.0609 17.5658 -22.0609],0.516,0.139,0.818,0.522,0.501,0.121,0.904,0.518,289.0,517.0
2015-02-12,Windhoek,Namibia,17.0658,-22.5609,[16.5658 -23.0609 17.5658 -22.0609],0.495,0.137,0.831,0.532,0.477,0.107,0.879,0.495,249.0,520.0
2015-02-13,Windhoek,Namibia,17.0658,-22.5609,[16.5658 -23.0609 17.5658 -22.0609],0.495,0.134,0.831,0.533,0.466,0.105,0.854,0.485,228.0,515.0
2015-02-14,Windhoek,Namibia,17.0658,-22.5609,[16.5658 -23.0609 17.5658 -22.0609],0.504,0.13,0.878,0.548,0.466,0.098,0.882,0.495,212.0,541.0
2015-02-15,Windhoek,Namibia,17.0658,-22.5609,[16.5658 -23.0609 17.5658 -22.0609],0.495,0.122,0.831,0.533,0.495,0.115,0.877,0.506,184.0,526.0
2015-02-16,Windhoek,Namibia,17.0658,-22.5609,[16.5658 -23.0609 17.5658 -22.0609],0.522,0.162,0.91,0.583,0.51,0.13,0.901,0.528,166.0,531.0
2015-02-17,Windhoek,Namibia,17.0658,-22.5609,[16.5658 -23.0609 17.5658 -22.0609],0.584,0.228,0.974,0.651,0.467,0.082,0.879,0.506,144.0,532.0
2015-02-18,Windhoek,Namibia,17.0658,-22.5609,[16.5658 -23.0609 17.5658 -22.0609],0.579,0.228,0.99,0.652,0.46,0.085,0.869,0.496,163.0,520.0
2015-02-19,Windhoek,Namibia,17.0658,-22.5609,[16.5658 -23.0609 17.5658 -22.0609],0.599,0.224,1.011,0.67,0.462,0.089,0.857,0.498,154.0,530.0
2015-02-20,Windhoek,Namibia,17.0658,-22.5609,[16.5658 -23.0609 17.5658 -22.0609],0.541,0.199,0.938,0.593,0.467,0.107,0.848,0.505,175.0,513.0
2015-02-21,Windhoek,Namibia,17.0658,-22.5609,[16.5658 -23.0609 17.5658 -22.0609],0.481,0.118,0.85,0.543,0.452,0.09,0.827,0.486,149.0,530.0
2015-02-22,Windhoek,Namibia,17.0658,-22.5609,[16.5658 -23.0609 17.5658 -22.0609],0.461,0.118,0.831,0.526,0.439,0.084,0.816,0.475,118.0,520.0
2015-02-23,Windhoek,Namibia,17.0658,-22.5609,[16.5658 -23.0609 17.5658 -22.0609],0.461,0.076,0.825,0.503,0.454,0.074,0.816,0.473,129.0,536.0
2015-02-24,Windhoek,Namibia,17.0658,-22.5609,[16.5658 -23.0609 17.5658 -22.0609],0.461,0.076,0.779,0.479,0.462,0.062,0.811,0.464,105.0,533.0
2015-02-25,Windhoek,Namibia,17.0658,-22.5609,[16.5658 -23.0609 17.5658 -22.0609],0.461,0.076,0.784,0.501,0.464,0.07,0.809,0.466,102.0,525.0
2015-02-26,Windhoek,Namibia,17.0658,-22.5609,[16.5658 -23.0609 17.5658 -22.0609],0.461,0.076,0.784,0.501,0.455,0.059,0.802,0.461,102.0,562.0
2015-02-27,Windhoek,Namibia,17.0658,-22.5609,[16.5658 -23.0609 17.5658 -22.0609],0.461,0.076,0.784,0.501,0.472,0.063,0.828,0.473,102.0,537.0
2015-02-28,Windhoek,Namibia,17.0658,-22.5609,[16.5658 -23.0609 17.5658 -22.0609],0.461,0.076,0.784,0.501,0.468,0.067,0.846,0.473,102.0,541.0
2015-03-01,Windhoek,Namibia,17.0658,-22.5609,[16.5658 -23.0609 17.5658 -22.0609],0.461,0.074,0.76,0.471,0.467,0.05,0.818,0.465,112.0,537.0
2015-03-02,Windhoek,Namibia,17.0658,-22.5609,[16.5658 -23.0609 17.5658 -22.0609],0.461,0.076,0.77,0.504,0.472,0.07,0.843,0.48,117.0,565.0
2015-03-03,Windhoek,Namibia,17.0658,-22.5609,[16.5658 -23.0609 17.5658 -22.0609],0.461,0.076,0.736,0.465,0.437,0.076,0.813,0.462,128.0,547.0
2015-03-04,Windhoek,Namibia,17.0658,-22.5609,[16.5658 -23.0609 17.5658 -22.0609],0.461,0.074,0.736,0.438,0.421,0.066,0.804,0.448,137.0,553.0
2015-03-05,Windhoek,Namibia,17.0658,-22.5609,[16.5658 -23.0609 17.5658 -22.0609],0.461,0.138,0.76,0.468,0.436,0.088,0.817,0.458,135.0,554.0
2015-03-06,Windhoek,Namibia,17.0658,-22.5609,[16.5658 -23.0609 17.5658 -22.0609],0.461,0.076,0.76,0.474,0.42,0.082,0.82,0.46,161.0,540.0
2015-03-07,Windhoek,Namibia,17.0658,-22.5609,[16.5658 -23.0609 17.5658 -22.0609],0.517,0.03,0.901,0.517,0.428,0.079,0.851,0.47,141.0,550.0
2015-03-08,Windhoek,Namibia,17.0658,-22.5609,[16.5658 -23.0609 17.5658 -22.0609],0.366,-0.011,0.827,0.459,0.407,0.059,0.848,0.458,155.0,534.0
2015-03-09,Windhoek,Namibia,17.0658,-22.5609,[16.5658 -23.0609 17.5658 -22.0609],0.366,-0.011,0.781,0.458,0.423,0.07,0.834,0.468,152.0,551.0
2015-03-10,Windhoek,Namibia,17.0658,-22.5609,[16.5658 -23.0609 17.5658 -22.0609],0.377,0.006,0.781,0.448,0.421,0.084,0.834,0.477,138.0,541.0
2015-03-11,Windhoek,Namibia,17.0658,-22.5609,[16.5658 -23.0609 17.5658 -22.0609],0.379,0.006,0.827,0.449,0.419,0.095,0.834,0.485,163.0,556.0
2015-03-12,Windhoek,Namibia,17.0658,-22.5609,[16.5658 -23.0609 17.5658 -22.0609],0.366,0.006,0.816,0.418,0.414,0.09,0.849,0.481,161.0,554.0
2015-03-13,Windhoek,Namibia,17.0658,-22.5609,[16.5658 -23.0609 17.5658 -22.0609],0.366,0.006,0.827,0.428,0.401,0.054,0.833,0.45,165.0,548.0
2015-03-14,Windhoek,Namibia,17.0658,-22.5609,[16.5658 -23.0609 17.5658 -22.0609],0.366,0.006,0.827,0.428,0.397,0.042,0.834,0.455,165.0,564.0
2015-03-15,Windhoek,Namibia,17.0658,-22.5609,[16.5658 -23.0609 17.5658 -22.0609],0.366,0.006,0.827,0.428,0.406,0.057,0.842,0.462,165.0,515.0
2015-03-16,Windhoek,Namibia,17.0658,-22.5609,[16.5658 -23.0609 17.5658 -22.0609],0.399,0.006,0.857,0.437,0.418,0.072,0.86,0.475,152.0,520.0
2015-03-17,Windhoek,Namibia,17.0658,-22.5609,[16.5658 -23.0609 17.5658 -22.0609],0.444,0.024,0.827,0.441,0.425,0.062,0.883,0.471,169.0,515.0
2015-03-18,Windhoek,Namibia,17.0658,-22.5609,[16.5658 -23.0609 17.5658 -22.0609],0.458,0.024,0.867,0.496,0.442,0.054,0.891,0.485,172.0,546.0
2015-03-19,Windhoek,Namibia,17.0658,-22.5609,[16.5658 -23.0609 17.5658 -22.0609],0.444,0.024,0.836,0.463,0.459,0.053,0.895,0.493,177.0,528.0
2015-03-20,Windhoek,Namibia,17.0658,-22.5609,[16.5658 -23.0609 17.5658 -22.0609],0.366,0.008,0.778,0.38,0.447,0.044,0.874,0.462,166.0,536.0
2015-03-21,Windhoek,Namibia,17.0658,-22.5609,[16.5658 -23.0609 17.5658 -22.0609],0.366,0.011,0.756,0.367,0.451,0.039,0.871,0.456,146.0,538.0
2015-03-22,Windhoek,Namibia,17.0658,-22.5609,[16.5658 -23.0609 17.5658 -22.0609],0.341,0.006,0.728,0.336,0.434,0.049,0.84,0.446,159.0,526.0
2015-03-23,Windhoek,Namibia,17.0658,-22.5609,[16.5658 -23.0609 17.5658 -22.0609],0.379,0.008,0.836,0.359,0.431,0.03,0.856,0.439,145.0,536.0
2015-03-24,Windhoek,Namibia,17.0658,-22.5609,[16.5658 -23.0609 17.5658 -22.0609],0.451,0.127,0.836,0.44,0.409,0.02,0.845,0.426,164.0,520.0
2015-03-25,Windhoek,Namibia,17.0658,-22.5609,[16.5658 -23.0609 17.5658 -22.0609],0.451,0.128,0.836,0.457,0.39,0.021,0.849,0.427,154.0,537.0
2015-03-26,Windhoek,Namibia,17.0658,-22.5609,[16.5658 -23.0609 17.5658 -22.0609],0.445,0.129,0.784,0.462,0.372,-0.007,0.808,0.4,133.0,529.0
2015-03-27,Windhoek,Namibia,17.0658,-22.5609,[16.5658 -23.0609 17.5658 -22.0609],0.442,0.128,0.761,0.415,0.382,-0.005,0.802,0.4,150.0,542.0
2015-03-28,Windhoek,Namibia,17.0658,-22.5609,[16.5658 -23.0609 17.5658 -22.0609],0.389,0.128,0.761,0.402,0.391,0.043,0.826,0.438,152.0,540.0
2015-03-29,Windhoek,Namibia,17.0658,-22.5609,[16.5658 -23.0609 17.5658 -22.0609],0.389,0.127,0.784,0.408,0.368,0.029,0.81,0.42,170.0,530.0
2015-03-30,Windhoek,Namibia,17.0658,-22.5609,[16.5658 -23.0609 17.5658 -22.0609],0.4,0.127,0.784,0.408,0.35,0.01,0.797,0.4,173.0,568.0
2015-03-31,Windhoek,Namibia,17.0658,-22.5609,[16.5658 -23.0609 17.5658 -22.0609],0.389,0.128,0.778,0.406,0.342,-0.001,0.787,0.379,174.0,540.0
2015-04-01,Windhoek,Namibia,17.0658,-22.5609,[16.5658 -23.0609 17.5658 -22.0609],0.3,0.089,0.775,0.379,0.316,-0.017,0.778,0.369,150.0,544.0
2015-04-02,Windhoek,Namibia,17.0658,-22.5609,[16.5658 -23.0609 17.5658 -22.0609],0.3,0.033,0.658,0.313,0.309,-0.039,0.752,0.35,153.0,537.0
2015-04-03,Windhoek,Namibia,17.0658,-22.5609,[16.5658 -23.0609 17.5658 -22.0609],0.369,0.033,0.714,0.35,0.319,-0.041,0.743,0.354,147.0,564.0
2015-04-04,Windhoek,Namibia,17.0658,-22.5609,[16.5658 -23.0609 17.5658 -22.0609],0.359,-0.044,0.698,0.35,0.311,-0.076,0.748,0.358,158.0,545.0
2015-04-05,Windhoek,Namibia,17.0658,-22.5609,[16.5658 -23.0609 17.5658 -22.0609],0.3,-0.096,0.642,0.296,0.305,-0.067,0.757,0.354,181.0,552.0
2015-04-06,Windhoek,Namibia,17.0658,-22.5609,[16.5658 -23.0609 17.5658 -22.0609],0.359,-0.06,0.646,0.308,0.323,-0.075,0.759,0.352,193.0,553.0
2015-04-07,Windhoek,Namibia,17.0658,-22.5609,[16.5658 -23.0609 17.5658 -22.0609],0.391,-0.048,0.714,0.372,0.358,-0.035,0.777,0.382,220.0,539.0
2015-04-08,Windhoek,Namibia,17.0658,-22.5609,[16.5658 -23.0609 17.5658 -22.0609],0.359,-0.149,0.707,0.297,0.363,-0.038,0.791,0.38,201.0,548.0
2015-04-09,Windhoek,Namibia,17.0658,-22.5609,[16.5658 -23.0609 17.5658 -22.0609],0.292,-0.198,0.627,0.259,0.349,-0.057,0.769,0.365,225.0,532.0
2015-04-10,Windhoek,Namibia,17.0658,-22.5609,[16.5658 -23.0609 17.5658 -22.0609],0.286,-0.219,0.627,0.245,0.352,-0.059,0.765,0.366,220.0,547.0
2015-04-11,Windhoek,Namibia,17.0658,-22.5609,[16.5658 -23.0609 17.5658 -22.0609],0.334,-0.122,0.705,0.31,0.344,-0.052,0.765,0.357,223.0,537.0
2015-04-12,Windhoek,Namibia,17.0658,-22.5609,[16.5658 -23.0609 17.5658 -22.0609],0.322,-0.149,0.697,0.292,0.325,-0.09,0.743,0.328,250.0,550.0
2015-04-13,Windhoek,Namibia,17.0658,-22.5609,[16.5658 -23.0609 17.5658 -22.0609],0.315,-0.146,0.646,0.276,0.317,-0.095,0.749,0.326,245.0,549.0
2015-04-14,Windhoek,Namibia,17.0658,-22.5609,[16.5658 -23.0609 17.5658 -22.0609],0.311,-0.149,0.627,0.265,0.333,-0.084,0.756,0.336,269.0,542.0
2015-04-15,Windhoek,Namibia,17.0658,-22.5609,[16.5658 -23.0609 17.5658 -22.0609],0.315,-0.174,0.646,0.266,0.32,-0.117,0.759,0.315,289.0,559.0
2015-04-16,Windhoek,Namibia,17.0658,-22.5609,[16.5658 -23.0609 17.5658 -22.0609],0.315,-0.174,0.646,0.266,0.312,-0.121,0.74,0.304,289.0,511.0
2015-04-17,Windhoek,Namibia,17.0658,-22.5609,[16.5658 -23.0609 17.5658 -22.0609],0.311,-0.174,0.646,0.265,0.3,-0.133,0.73,0.297,265.0,515.0
2015-04-18,Windhoek,Namibia,17.0658,-22.5609,[16.5658 -23.0609 17.5658 -22.0609],0.306,-0.164,0.555,0.252,0.307,-0.129,0.701,0.283,278.0,512.0
2015-04-19,Windhoek,Namibia,17.0658,-22.5609,[16.5658 -23.0609 17.5658 -22.0609],0.306,-0.174,0.576,0.253,0.317,-0.106,0.725,0.297,277.0,541.0
2015-04-20,Windhoek,Namibia,17.0658,-22.5609,[16.5658 -23.0609 17.5658 -22.0609],0.311,-0.094,0.562,0.278,0.315,-0.123,0.71,0.287,259.0,523.0
2015-04-21,Windhoek,Namibia,17.0658,-22.5609,[16.5658 -23.0609 17.5658 -22.0609],0.269,-0.145,0.546,0.238,0.313,-0.123,0.691,0.28,261.0,529.0
2015-04-22,Windhoek,Namibia,17.0658,-22.5609,[16.5658 -23.0609 17.5658 -22.0609],0.185,-0.227,0.485,0.15,0.259,-0.166,0.68,0.244,258.0,531.0
2015-04-23,Windhoek,Namibia,17.0658,-22.5609,[16.5658 -23.0609 17.5658 -22.0609],0.191,-0.219,0.517,0.166,0.276,-0.154,0.657,0.249,285.0,519.0
2015-04-24,Windhoek,Namibia,17.0658,-22.5609,[16.5658 -23.0609 17.5658 -22.0609],0.199,-0.205,0.522,0.17,0.282,-0.15,0.66,0.248,265.0,529.0
2015-04-25,Windhoek,Namibia,17.0658,-22.5609,[16.5658 -23.0609 17.5658 -22.0609],0.214,-0.205,0.522,0.174,0.277,-0.154,0.672,0.243,271.0,512.0
2015-04-26,Windhoek,Namibia,17.0658,-22.5609,[16.5658 -23.0609 17.5658 -22.0609],0.158,-0.299,0.506,0.093,0.276,-0.14,0.67,0.24,242.0,533.0
2015-04-27,Windhoek,Namibia,17.0658,-22.5609,[16.5658 -23.0609 17.5658 -22.0609],0.214,-0.239,0.517,0.144,0.291,-0.132,0.684,0.257,240.0,524.0
2015-04-28,Windhoek,Namibia,17.0658,-22.5609,[16.5658 -23.0609 17.5658 -22.0609],0.199,-0.256,0.526,0.13,0.276,-0.15,0.666,0.251,262.0,540.0
2015-04-29,Windhoek,Namibia,17.0658,-22.5609,[16.5658 -23.0609 17.5658 -22.0609],0.269,-0.235,0.557,0.159,0.284,-0.138,0.651,0.248,245.0,534.0
2015-04-30,Windhoek,Namibia,17.0658,-22.5609,[16.5658 -23.0609 17.5658 -22.0609],0.284,-0.205,0.562,0.169,0.297,-0.105,0.662,0.269,250.0,526.0
2015-05-01,Windhoek,Namibia,17.0658,-22.5609,[16.5658 -23.0609 17.5658 -22.0609],0.284,-0.184,0.571,0.183,0.312,-0.098,0.68,0.286,271.0,563.0
2015-05-02,Windhoek,Namibia,17.0658,-22.5609,[16.5658 -23.0609 17.5658 -22.0609],0.284,-0.231,0.571,0.182,0.307,-0.11,0.675,0.281,282.0,542.0
2015-05-03,Windhoek,Namibia,17.0658,-22.5609,[16.5658 -23.0609 17.5658 -22.0609],0.295,-0.254,0.656,0.177,0.281,-0.116,0.687,0.269,255.0,547.0
2015-05-04,Windhoek,Namibia,17.0658,-22.5609,[16.5658 -23.0609 17.5658 -22.0609],0.35,-0.16,0.639,0.223,0.279,-0.13,0.654,0.262,275.0,541.0
2015-05-05,Windhoek,Namibia,17.0658,-22.5609,[16.5658 -23.0609 17.5658 -22.0609],0.321,-0.209,0.656,0.205,0.283,-0.12,0.707,0.278,279.0,569.0
2015-05-06,Windhoek,Namibia,17.0658,-22.5609,[16.5658 -23.0609 17.5658 -22.0609],0.402,-0.098,0.677,0.265,0.29,-0.106,0.717,0.287,270.0,552.0
2015-05-07,Windhoek,Namibia,17.0658,-22.5609,[16.5658 -23.0609 17.5658 -22.0609],0.402,-0.081,0.685,0.284,0.301,-0.112,0.725,0.293,272.0,558.0
2015-05-08,Windhoek,Namibia,17.0658,-22.5609,[16.5658 -23.0609 17.5658 -22.0609],0.402,-0.078,0.671,0.276,0.293,-0.133,0.687,0.285,269.0,560.0
2015-05-09,Windhoek,Namibia,17.0658,-22.5609,[16.5658 -23.0609 17.5658 -22.0609],0.401,-0.073,0.675,0.292,0.298,-0.134,0.698,0.289,290.0,547.0
2015-05-10,Windhoek,Namibia,17.0658,-22.5609,[16.5658 -23.0609 17.5658 -22.0609],0.401,-0.073,0.671,0.286,0.307,-0.131,0.7,0.296,290.0,556.0
2015-05-11,Windhoek,Namibia,17.0658,-22.5609,[16.5658 -23.0609 17.5658 -22.0609],0.365,-0.078,0.639,0.27,0.284,-0.143,0.724,0.29,317.0,535.0
2015-05-12,Windhoek,Namibia,17.0658,-22.5609,[16.5658 -23.0609 17.5658 -22.0609],0.344,-0.081,0.671,0.27,0.292,-0.129,0.71,0.296,286.0,554.0
2015-05-13,Windhoek,Namibia,17.0658,-22.5609,[16.5658 -23.0609 17.5658 -22.0609],0.344,-0.078,0.671,0.285,0.301,-0.115,0.732,0.302,281.0,543.0
2015-05-14,Windhoek,Namibia,17.0658,-22.5609,[16.5658 -23.0609 17.5658 -22.0609],0.313,-0.106,0.639,0.259,0.312,-0.111,0.724,0.3,305.0,564.0
2015-05-15,Windhoek,Namibia,17.0658,-22.5609,[16.5658 -23.0609 17.5658 -22.0609],0.294,-0.15,0.632,0.227,0.308,-0.119,0.744,0.307,289.0,559.0
2015-05-16,Windhoek,Namibia,17.0658,-22.5609,[16.5658 -23.0609 17.5658 -22.0609],0.288,-0.158,0.618,0.217,0.293,-0.11,0.737,0.301,295.0,552.0
2015-05-17,Windhoek,Namibia,17.0658,-22.5609,[16.5658 -23.0609 17.5658 -22.0609],0.27,-0.144,0.601,0.215,0.294,-0.097,0.735,0.311,304.0,563.0
2015-05-18,Windhoek,Namibia,17.0658,-22.5609,[16.5658 -23.0609 17.5658 -22.0609],0.27,-0.144,0.601,0.215,0.328,-0.089,0.737,0.329,304.0,514.0
2015-05-19,Windhoek,Namibia,17.0658,-22.5609,[16.5658 -23.0609 17.5658 -22.0609],0.207,-0.171,0.601,0.182,0.314,-0.081,0.738,0.32,265.0,519.0
2015-05-20,Windhoek,Namibia,17.0658,-22.5609,[16.5658 -23.0609 17.5658 -22.0609],0.216,-0.169,0.561,0.198,0.31,-0.092,0.723,0.317,289.0,514.0
2015-05-21,Windhoek,Namibia,17.0658,-22.5609,[16.5658 -23.0609 17.5658 -22.0609],0.197,-0.176,0.515,0.184,0.333,-0.084,0.749,0.331,289.0,541.0
2015-05-22,Windhoek,Namibia,17.0658,-22.5609,[16.5658 -23.0609 17.5658 -22.0609],0.216,-0.15,0.561,0.204,0.32,-0.072,0.736,0.327,283.0,523.0
2015-05-23,Windhoek,Namibia,17.0658,-22.5609,[16.5658 -23.0609 17.5658 -22.0609],0.216,-0.164,0.561,0.208,0.319,-0.07,0.728,0.33,287.0,527.0
2015-05-24,Windhoek,Namibia,17.0658,-22.5609,[16.5658 -23.0609 17.5658 -22.0609],0.197,-0.172,0.561,0.194,0.321,-0.062,0.721,0.33,288.0,529.0
2015-05-25,Windhoek,Namibia,17.0658,-22.5609,[16.5658 -23.0609 17.5658 -22.0609],0.197,-0.172,0.58,0.207,0.32,-0.052,0.725,0.335,309.0,518.0
2015-05-26,Windhoek,Namibia,17.0658,-22.5609,[16.5658 -23.0609 17.5658 -22.0609],0.197,-0.18,0.601,0.215,0.333,-0.048,0.738,0.341,286.0,530.0
2015-05-27,Windhoek,Namibia,17.0658,-22.5609,[16.5658 -23.0609 17.5658 -22.0609],0.229,-0.142,0.705,0.268,0.337,-0.048,0.753,0.348,311.0,509.0
2015-05-28,Windhoek,Namibia,17.0658,-22.5609,[16.5658 -23.0609 17.5658 -22.0609],0.229,-0.142,0.706,0.271,0.355,-0.044,0.753,0.362,281.0,528.0
2015-05-29,Windhoek,Namibia,17.0658,-22.5609,[16.5658 -23.0609 17.5658 -22.0609],0.239,-0.087,0.737,0.302,0.358,-0.038,0.777,0.372,277.0,515.0
2015-05-30,Windhoek,Namibia,17.0658,-22.5609,[16.5658 -23.0609 17.5658 -22.0609],0.281,-0.048,0.819,0.361,0.374,-0.017,0.8,0.385,300.0,533.0
2015-05-31,Windhoek,Namibia,17.0658,-22.5609,[16.5658 -23.0609 17.5658 -22.0609],0.286,-0.048,0.819,0.37,0.403,0.021,0.796,0.408,285.0,527.0
2015-06-01,Windhoek,Namibia,17.0658,-22.5609,[16.5658 -23.0609 17.5658 -22.0609],0.369,-0.036,0.86,0.402,0.426,0.028,0.816,0.424,293.0,519.0
2015-06-02,Windhoek,Namibia,17.0658,-22.5609,[16.5658 -23.0609 17.5658 -22.0609],0.372,-0.036,0.848,0.402,0.423,0.025,0.826,0.424,314.0,555.0
2015-06-03,Windhoek,Namibia,17.0658,-22.5609,[16.5658 -23.0609 17.5658 -22.0609],0.372,-0.021,0.829,0.398,0.435,0.033,0.827,0.434,333.0,531.0
2015-06-04,Windhoek,Namibia,17.0658,-22.5609,[16.5658 -23.0609 17.5658 -22.0609],0.386,0.0,0.881,0.444,0.436,0.045,0.829,0.441,292.0,537.0
2015-06-05,Windhoek,Namibia,17.0658,-22.5609,[16.5658 -23.0609 17.5658 -22.0609],0.405,0.047,0.877,0.451,0.439,0.068,0.822,0.439,313.0,532.0
2015-06-06,Windhoek,Namibia,17.0658,-22.5609,[16.5658 -23.0609 17.5658 -22.0609],0.391,0.041,0.881,0.457,0.444,0.083,0.818,0.458,312.0,560.0
2015-06-07,Windhoek,Namibia,17.0658,-22.5609,[16.5658 -23.0609 17.5658 -22.0609],0.387,0.055,0.867,0.452,0.457,0.111,0.837,0.48,304.0,544.0
2015-06-08,Windhoek,Namibia,17.0658,-22.5609,[16.5658 -23.0609 17.5658 -22.0609],0.407,0.082,0.881,0.483,0.467,0.116,0.844,0.493,307.0,549.0
2015-06-09,Windhoek,Namibia,17.0658,-22.5609,[16.5658 -23.0609 17.5658 -22.0609],0.425,0.096,0.857,0.491,0.471,0.132,0.823,0.496,306.0,551.0
2015-06-10,Windhoek,Namibia,17.0658,-22.5609,[16.5658 -23.0609 17.5658 -22.0609],0.428,0.096,0.853,0.491,0.496,0.148,0.866,0.518,328.0,538.0
2015-06-11,Windhoek,Namibia,17.0658,-22.5609,[16.5658 -23.0609 17.5658 -22.0609],0.407,0.093,0.822,0.472,0.494,0.147,0.86,0.515,305.0,550.0
2015-06-12,Windhoek,Namibia,17.0658,-22.5609,[16.5658 -23.0609 17.5658 -22.0609],0.436,0.121,0.788,0.473,0.501,0.144,0.839,0.505,327.0,532.0
2015-06-13,Windhoek,Namibia,17.0658,-22.5609,[16.5658 -23.0609 17.5658 -22.0609],0.468,0.131,0.783,0.49,0.514,0.151,0.83,0.512,297.0,549.0
2015-06-14,Windhoek,Namibia,17.0658,-22.5609,[16.5658 -23.0609 17.5658 -22.0609],0.528,0.198,0.784,0.509,0.514,0.157,0.825,0.507,294.0,539.0
2015-06-15,Windhoek,Namibia,17.0658,-22.5609,[16.5658 -23.0609 17.5658 -22.0609],0.53,0.2,0.812,0.524,0.514,0.149,0.837,0.502,317.0,557.0
2015-06-16,Windhoek,Namibia,17.0658,-22.5609,[16.5658 -23.0609 17.5658 -22.0609],0.505,0.198,0.774,0.503,0.503,0.132,0.819,0.486,300.0,554.0